Flag for Australia

Past Weather in Grafton, New South Wales, Australia — Yesterday and Last 2 Weeks

Now
65 °F

Mild.


Feels Like: 65 °F
Forecast: 70 / 49 °F
Wind: 7 mph from Southeast

Location: Yamba

Current Time: Jul 10, 2020 at 1:00:48 pm

Latest Report: Jul 10, 2020 at 12:00 pm


Visibility: N/A

Pressure: 30.31 "Hg

Humidity: 81%

Dew Point: 59 °F

Location of GraftonLocation

Past Weather in Grafton — Graph

°F

Grafton Temperature Yesterday

Maximum temperature yesterday: 67 °F (at 3:00 pm)
Minimum temperature yesterday: 53 °F (at 6:00 am)
Average temperature yesterday: 61 °F

High & Low Weather Summary for the Past Weeks

 TemperatureHumidityPressure
High74 °F (Jul 3, 1:00 pm)99% (Jul 9, 1:00 am)30.43 "Hg (Jul 9, 1:00 am)
Low44 °F (Jul 5, 6:00 am)35% (Jul 4, 3:00 pm)30.01 "Hg (Jul 4, 2:00 pm)
Average58 °F78%30.23 "Hg
* Reported Jun 25 11:00 am — Jul 10 11:00 am, Grafton. Weather by CustomWeather, © 2020

Note: Actual official high and low records may vary slightly from our data, if they occured in-between our weather recording intervals... More about our weather records

Grafton Weather History for the Previous 24 Hours

Scroll right to see more
 ConditionsComfort  
Time TempWeatherWind HumidityBarometerVisibility
11:00 am
Fri, Jul 10
64 °FMild.No wind81%30.35 "HgN/A
10:00 am60 °FCool.6 mph94%30.37 "HgN/A
9:00 am59 °FCool.7 mph95%30.37 "HgN/A
8:00 am59 °FCool.5 mph92%30.36 "HgN/A
7:00 am57 °FCool.5 mph98%30.36 "HgN/A
6:00 am56 °FCool.7 mph97%30.34 "HgN/A
5:00 am56 °FCool.6 mph97%30.33 "HgN/A
4:00 am56 °FCool.8 mph96%30.32 "HgN/A
3:00 am57 °FCool.7 mph93%30.33 "HgN/A
2:00 am58 °FCool.6 mph90%30.34 "HgN/A
1:00 am60 °FCool.6 mph80%30.35 "HgN/A
12:00 am64 °FMild.7 mph63%30.36 "HgN/A
11:00 pm
Thu, Jul 9
65 °FMild.8 mph64%30.37 "HgN/A
9:00 pm65 °FMild.8 mph66%30.38 "HgN/A
8:00 pm65 °FMild.8 mph63%30.38 "HgN/A
7:00 pm65 °FMild.8 mph67%30.36 "HgN/A
6:00 pm65 °FMild.8 mph66%30.36 "HgN/A
5:00 pm65 °FMild.8 mph68%30.35 "HgN/A
4:00 pm66 °FMild.8 mph71%30.34 "HgN/A
3:00 pm67 °FMild.7 mph59%30.35 "HgN/A
2:00 pm67 °FMild.7 mph66%30.36 "HgN/A
1:00 pm67 °FMild.8 mph71%30.37 "HgN/A
Weather by CustomWeather, © 2020

See weather overview